Regional Weather Roundup
Issued by NWS

Home | Current Version | Previous Version | Text Only | Print | Product List | Glossary On
Versions: 1 2 3 4 5 6 7 8 9 10 11 12 13 14 15 16 17 18 19 20 21 22 23 24 25 26 27 28 29 30 31 32 33 34 35 36 37 38 39 40 41 42 43 44 45 46 47 48 49 50
000
ASUS44 KEWX 030002
RWRTX
SOUTH TEXAS REGIONAL WEATHER ROUNDUP
NATIONAL WEATHER SERVICE AUSTIN/SAN ANTONIO TX
600 PM CST MON MAR 02 2015

NOTE: "FAIR" INDICATED FEW OR NO CLOUDS BELOW 12,000 FEET WITH NO
SIGNIFICANT WEATHER AND/OR OBSTRUCTIONS TO VISIBILITY.

* - THESE STATIONS ARE NOT NWS OR FAA STATIONS...AND ARE NOT SUBJECT
    TO NWS AND FAA QUALITY CONTROL.

TXZ171-172-183>190-030100-
TEXAS HILL COUNTRY AND EDWARDS PLATEAU

CITY           SKY/WX    TMP DP  RH WIND       PRES   REMARKS
JUNCTION       CLOUDY    40  39  97 E5        30.13F FOG     WCI  37
6HR MIN TEMP:  38; 6HR MAX TEMP:  41;

*LLANO         CLOUDY    41  39  93 NE3       30.20F FOG
BURNET           N/A    N/A N/A N/A MISG      30.18F
*HORSESHOE BAY CLOUDY    41  41 100 CALM      30.17F FOG
6HR MIN TEMP:  40; 6HR MAX TEMP:  42;

*KERRVILLE     RAIN      44  42  95 NE3       30.14S VSB 1
6HR MIN TEMP:  41; 6HR MAX TEMP:  44;

*FREDERICKSBRG FOG       41  40  98 CALM      30.14F VSB 3/4
*ROCKSPRINGS   FOG       45  45 100 SE6       30.12F VSB 3/4 WCI  41
*BOERNE STAGE  CLOUDY    45  43  93 NE3       30.15S VSB 3/4
*CASTROVILLE   CLOUDY    48  47  95 E6        30.17F FOG     WCI  46
HONDO          CLOUDY    49  47  93 E5        30.16S FOG     WCI  47
6HR MIN TEMP:  47; 6HR MAX TEMP:  51; 6HR PCP: TRACE;

*UVALDE        CLOUDY    48  47  97 E5        30.14F FOG     WCI  46
6HR MIN TEMP:  46; 6HR MAX TEMP:  49;

DEL RIO        CLOUDY    51  44  77 E7        30.11F
6HR MIN TEMP:  46; 6HR MAX TEMP:  52;

LAUGHLIN AFB   CLOUDY    51  46  83 SE6       30.12F
6HR MIN TEMP:  46; 6HR MAX TEMP:  51;

CARRIZO SPRGS  CLOUDY    46  45  93 E3        30.14F FOG
$$

TXZ173-191>194-202-209-217>225-228-030100-
CENTRAL AND SOUTH CENTRAL TEXAS

CITY           SKY/WX    TMP DP  RH WIND       PRES   REMARKS
GEORGETOWN     FOG       41  39  93 N6        30.17F VSB 3/4 WCI  37
AUSTIN/BERGSTM FOG       43  42  97 NE9       30.17F VSB 1   WCI  38
6HR MIN TEMP:  42; 6HR MAX TEMP:  45;

AUSTIN/MABRY   CLOUDY    43  41  93 VRB3      30.18F FOG
6HR MIN TEMP:  42; 6HR MAX TEMP:  45; 6HR PCP: TRACE;

*AUSTIN/EXEC   FOG       41  41 100 NE8       30.18F VSB 1/2 WCI  36
*LAGO VISTA    FOG       42  41  95 CALM      30.16F VSB<1/4
6HR MIN TEMP:  40; 6HR MAX TEMP:  42;

SAN MARCOS     CLOUDY    45  41  87 NE10      30.17F FOG     WCI  39
NEW BRAUNFELS  CLOUDY    45  43  93 NE8       30.15F FOG     WCI  41
6HR MIN TEMP:  45; 6HR MAX TEMP:  48;

RANDOLPH AFB   DRZL/FOG  46  45  93 NE8       30.15F VSB 1   WCI  42
PT SAN ANTONIO CLOUDY    47  46  97 NE6       30.13F WCI  45
6HR MIN TEMP:  47; 6HR MAX TEMP:  50; 6HR PCP: TRACE;

SAN ANTONIO    DRIZZLE   47  45  93 NE6       30.15F FOG     WCI  44
6HR MIN TEMP:  46; 6HR MAX TEMP:  49; 6HR PCP: TRACE;

STINSON FIELD  CLOUDY    47  45  93 NE5       30.14F FOG     WCI  45
6HR MIN TEMP:  47; 6HR MAX TEMP:  49;

*PLEASANTON    CLOUDY    46  45  94 NE6       30.16F FOG     WCI  43
6HR MIN TEMP:  45; 6HR MAX TEMP:  47;

*LA GRANGE     FOG       46  46  99 N5        30.17S VSB 3/4 WCI  44
*GIDDINGS      FOG       43  42  97 N5        30.22S VSB 1/2 WCI  40
6HR MIN TEMP:  41; 6HR MAX TEMP:  43;

*GONZALES      FOG       46  46  99 N6        30.17S VSB 1/4 WCI  43
6HR MIN TEMP:  44; 6HR MAX TEMP:  46;

$$

TXZ163>164-176>182-195>201-210>213-226-227-235-030100-
SOUTHEAST TEXAS

CITY           SKY/WX    TMP DP  RH WIND       PRES   REMARKS
COLLEGE STN    FOG       45  44  97 N7        30.19F VSB 1   WCI  41
6HR MIN TEMP:  44; 6HR MAX TEMP:  46;

*BRYAN         FOG       45  44  99 NW3       30.21S VSB 3/4
*CALDWELL      FOG       43  43 100 N5        30.22F VSB 1/2 WCI  40
*CROCKETT      FOG       52  50  93 NE5       30.22F VSB 1
*BRENHAM       FOG       47  47  97 N5        30.19F VSB 1   WCI  45
HUNTSVILLE     FOG       50  49  96 NE3       30.18F VSB 1
6HR MIN TEMP:  47; 6HR MAX TEMP:  50;

CONROE         FOG       52  51  97 E5        30.19S VSB 1
6HR MIN TEMP:  50; 6HR MAX TEMP:  53;

HOUSTON BUSH   CLOUDY    58  54  86 NE6       30.16F
6HR MIN TEMP:  54; 6HR MAX TEMP:  60;

HOUSTON HOBBY  CLOUDY    62  57  83 E5        30.16S
6HR MIN TEMP:  55; 6HR MAX TEMP:  63;

*HOUSTON SW AP CLOUDY    63  58  84 MISG      30.17S
PEARLAND       CLOUDY    63  57  81 E6        30.18S
6HR MIN TEMP:  58; 6HR MAX TEMP:  66;

HOUSTON HOOKS  CLOUDY    54  51  90 CALM      30.18S FOG
6HR MIN TEMP:  51; 6HR MAX TEMP:  57;

ELLINGTON FLD  CLOUDY    61  61 100 NE5       30.18S FOG
SUGAR LAND     CLOUDY    61  54  77 N5        30.16S
6HR MIN TEMP:  55; 6HR MAX TEMP:  62;

*HOUSTON EXEC  CLOUDY    54  52  94 NE7       30.18F FOG
*CLEVELAND MUN NOT AVBL
*WHARTON       CLOUDY    55  52  90 N6        30.17F FOG
*COLUMBUS      CLOUDY    49  47  93 N7        30.17S FOG     WCI  46
$$

TXZ214>216-236>238-030100-
THE UPPER TEXAS COAST

CITY           SKY/WX    TMP DP  RH WIND       PRES   REMARKS
*ORANGE        CLOUDY    61  58  91 NE6       30.19S
6HR MIN TEMP:  57; 6HR MAX TEMP:  65;

PORT ARTHUR    CLOUDY    64  59  83 E7        30.17F
6HR MIN TEMP:  59; 6HR MAX TEMP:  67;

GALVESTON      CLOUDY    55  55 100 N6        30.17F FOG
6HR MIN TEMP:  53; 6HR MAX TEMP:  55; 6HR PCP: TRACE;

ANGLETON       CLOUDY    61  59  93 E5        30.15F
6HR MIN TEMP:  55; 6HR MAX TEMP:  63; 6HR PCP: TRACE;

*BAY CITY      CLOUDY    63  60  91 CALM      30.15S FOG
PALACIOS       CLOUDY    58  54  86 N10       30.15F FOG
6HR MIN TEMP:  53; 6HR MAX TEMP:  59;

$$

TXZ229>234-239>247-030100-
TEXAS COASTAL BEND AND RIO GRANDE PLAINS

CITY           SKY/WX    TMP DP  RH WIND       PRES   REMARKS
VICTORIA       CLOUDY    55  50  83 N5        30.16F
6HR MIN TEMP:  49; 6HR MAX TEMP:  56;

*BEEVILLE      CLOUDY    50  50 100 NE6       30.14F FOG     WCI  47
6HR MIN TEMP:  46; 6HR MAX TEMP:  51;

ROCKPORT       CLOUDY    56  52  86 NE7       30.14F FOG
6HR MIN TEMP:  52; 6HR MAX TEMP:  57;

*PORT ARANSAS  CLOUDY    55  53  94 N8        30.14S FOG
*PORT LAVACA   CLOUDY    54  52  94 NE10      30.15F FOG
6HR MIN TEMP:  50; 6HR MAX TEMP:  55;

*INGLESIDE     CLOUDY    39  35  88 N7        30.14S WCI  34
CORPUS CHRISTI DRZL/FOG  54  52  93 N6        30.14F VSB 1
6HR MIN TEMP:  49; 6HR MAX TEMP:  54; 6HR PCP: TRACE;

CORPUS NAS     CLOUDY    55  54  96 NE7       30.13F FOG
6HR MIN TEMP:  50; 6HR MAX TEMP:  55; 6HR PCP: TRACE;

*ROBSTOWN      CLOUDY    53  53  99 N3        30.15S FOG
ALICE          FOG       51  49  92 NE6       30.14F VSB 1
6HR MIN TEMP:  49; 6HR MAX TEMP:  52;

KINGSVILLE NAS DRZL/FOG  53  53 100 N7        30.14F VSB 1/4
6HR MIN TEMP:  49; 6HR MAX TEMP:  53; 6HR PCP: TRACE;

COTULLA        CLOUDY    48  46  93 NE3       30.15F FOG
6HR MIN TEMP:  47; 6HR MAX TEMP:  49; 6HR PCP: TRACE;

*FAITH RANCH   CLOUDY    48  48 100 NE6       30.14F WCI  46
LAREDO         LGT RAIN  48  46  93 NE7       30.16F FOG     WCI  45
6HR MIN TEMP:  47; 6HR MAX TEMP:  49; 6HR PCP: TRACE;

$$

TXZ248>255-030100-
DEEP SOUTH TEXAS

CITY           SKY/WX    TMP DP  RH WIND       PRES   REMARKS
BROWNSVILLE    FOG       57  56  96 N8        30.12S VSB 3/4
6HR MIN TEMP:  56; 6HR MAX TEMP:  59;

PORT ISABEL    FOG       57  56  96 N12       30.11S VSB 1/2
6HR MIN TEMP:  57; 6HR MAX TEMP:  58;

*SOUTH PADRE     N/A     59  59 100 CALM      30.11S VSB<1/4
HARLINGEN      FOG       57  56  96 N8        30.11F VSB 1
6HR MIN TEMP:  54; 6HR MAX TEMP:  58;

*HEBBRONVILLE  HVY RAIN N/A N/A N/A N5        30.14F VSB 3/4
MCALLEN        CLOUDY    53  51  93 N6        30.14F FOG
6HR MIN TEMP:  53; 6HR MAX TEMP:  55; 6HR PCP: TRACE;

*WESLACO       FOG       53  51  94 N6        30.13F VSB 3/4
FALFURRIAS     CLOUDY    51  49  93 N5        30.14S
6HR MIN TEMP:  48; 6HR MAX TEMP:  52;

EDINBURG       FOG       54  51  92 N6        30.14S VSB 1/2
6HR MIN TEMP:  53; 6HR MAX TEMP:  54;

*ZAPATA        CLOUDY    50  50  99 N5        30.14S WCI  49
$$

TXZ213>215-236>238-242>244-246-247-251-254-255-030100-
CMAN STATIONS

STATION/POSITION TIME  TEMP    WIND        PRES    WAVE



USA.gov is the U.S. government's official web portal to all federal, state and local government web resources and services.